Regional Weather Roundup
Issued by NWS

Home | Current Version | Previous Version | Graphics & Text | Print | Product List | Glossary On
Versions: 1 2 3 4 5 6 7 8 9 10 11 12 13 14 15 16 17 18 19 20 21 22 23 24 25 26 27 28 29 30 31 32 33 34 35 36 37 38 39 40 41 42 43 44 45 46 47 48 49 50
000
ASUS43 KTOP 280559
RWRKS

WEATHER ROUNDUP FOR KANSAS
NATIONAL WEATHER SERVICE GOODLAND KS
100 AM CDT THU JUL 28 2016

NOTE:  "FAIR" INDICATES FEW OR NO CLOUDS BELOW 12,000 FEET WITH NO
SIGNIFICANT WEATHER AND/OR OBSTRUCTIONS TO VISIBILITY.

KSZ001>006-013>018-027>032-041>047-280700-
NORTHWEST KANSAS

CITY           SKY/WX    TMP DP  RH WIND       PRES   REMARKS
GOODLAND       CLOUDY    64  58  80 SW12      30.13R
6HR MIN TEMP:  63; 6HR MAX TEMP:  90; 6HR PCP:  0.59;

HAYS           CLEAR     73  64  73 NE6       30.04S
HILL CITY      CLOUDY    74  69  85 E3        30.06F
6HR MIN TEMP:  74; 6HR MAX TEMP:  88;

RUSSELL        CLEAR     73  69  87 NE6       30.01S
6HR MIN TEMP:  73; 6HR MAX TEMP:  91;

$$

KSZ061>065-074>080-084>089-280700-
SOUTHWEST KANSAS

CITY           SKY/WX    TMP DP  RH WIND       PRES   REMARKS
DODGE CITY     CLEAR     72  68  87 E3        30.05S
6HR MIN TEMP:  72; 6HR MAX TEMP:  82;

ELKHART          N/A     66  58  75 W7          N/A
GARDEN CITY    CLOUDY    70  65  84 NW3       30.09S
6HR MIN TEMP:  69; 6HR MAX TEMP:  87;

GREAT BEND     CLEAR     73  64  73 CALM      30.01F
LIBERAL        PTCLDY    70  63  78 NW6       30.08R
$$

KSZ066>073-081>083-090>101-280700-
SOUTHEAST KANSAS

CITY           SKY/WX    TMP DP  RH WIND       PRES   REMARKS
CHANUTE        PTCLDY    77  74  90 S3        29.97R
6HR MIN TEMP:  77; 6HR MAX TEMP:  91;

COFFEYVILLE    CLOUDY    77  74  90 CALM      29.95S
6HR MIN TEMP:  77; 6HR MAX TEMP:  92;

HUTCHINSON     CLEAR     75  70  84 CALM      29.99F
6HR MIN TEMP:  74; 6HR MAX TEMP:  91;

NEWTON         CLEAR     76  73  91 S7        29.99F
PARSONS        PTCLDY    76  73  91 CALM      29.98R
6HR MIN TEMP:  75; 6HR MAX TEMP:  91; 6HR PCP: TRACE;

WICHITA INTL   PTCLDY    78  72  81 SE3       29.98F
6HR MIN TEMP:  77; 6HR MAX TEMP:  92;

WICHITA JABRA  CLEAR     77  73  87 CALM      29.98F
6HR MIN TEMP:  74; 6HR MAX TEMP:  89;

WINFIELD       CLEAR     77  72  84 CALM      29.99S
6HR MIN TEMP:  76; 6HR MAX TEMP:  91;

$$

KSZ007>012-019>026-033>040-048>060-102>105-280700-
NORTHEAST KANSAS

CITY           SKY/WX    TMP DP  RH WIND       PRES   REMARKS
CONCORDIA      MOCLDY    74  68  81 CALM      30.01F
6HR MIN TEMP:  74; 6HR MAX TEMP:  88; 6HR PCP: TRACE;

EMPORIA        CLEAR     76  74  93 CALM      29.98S
6HR MIN TEMP:  74; 6HR MAX TEMP:  88;

LAWRENCE       CLEAR     69  68  96 CALM      29.95F
6HR MIN TEMP:  69; 6HR MAX TEMP:  88;

MANHATTAN      CLEAR     73  70  90 CALM      29.97F
6HR MIN TEMP:  73; 6HR MAX TEMP:  91;

OLATHE IND     CLEAR     74  71  91 S3        29.97S
6HR MIN TEMP:  73; 6HR MAX TEMP:  88;

OLATHE EXE       N/A     75  71  87 MISG      29.96F
6HR MIN TEMP:  74; 6HR MAX TEMP:  89;

SALINA         PTCLDY    81  69  67 CALM      29.99S
6HR MIN TEMP:  78; 6HR MAX TEMP:  92;

TOPEKA BILLARD CLEAR     74  71  91 CALM      29.96F
6HR MIN TEMP:  73; 6HR MAX TEMP:  89;

TOPEKA FORBES  CLEAR     75  70  84 CALM      29.96F
6HR MIN TEMP:  74; 6HR MAX TEMP:  90;

$$




USA.gov is the U.S. government's official web portal to all federal, state and local government web resources and services.